Location: Munkebjergskolens Observatorium
(55.3864°N, 10.3987°E)
Time: 22:51:28
(UTC+01:00)

Envisat - Pass Details

Date: 28 November 2022
Orbit: 763 x 765 km, 98.2° (Epoch: 01 February)

Event Time Altitude Azimuth Distance (km) Brightness Sun altitude
Rises 16:26:30 0° 196° (SSW) 3,222 7.1 -4.4°
Reaches altitude 10° 16:29:04 10° 207° (SSW) 2,301 6.5 -4.7°
Maximum altitude 16:33:28 29° 267° (W) 1,373 5.2 -5.2°
Drops below altitude 10° 16:37:55 10° 328° (NNW) 2,317 5.5 -5.8°
Sets 16:40:32 0° 339° (NNW) 3,248 6.2 -6.1°
